Location: Unspecified
(32.5099°N, 80.0190°W)
Time: 07:00:55
(UTC-04:00)

CZ-3 Stage 3 - Visible Passes

Search period start: 24 June 2018 00:00
Search period end: 04 July 2018 00:00
Orbit: 404 x 34790 km, 30.8° (Epoch: 23 June)

Date Brightness Start Highest point End Pass type
(mag) Time Alt. Az. Time Alt. Az. Time Alt. Az.
24 Jun 6.4 01:36:09 10° SW 04:05:04 31° SW 10:32:34 10° ESE visible
24 Jun 8.3 21:49:52 10° SSE 06:24:52 83° SSE 06:55:06 10° E visible
25 Jun 8.9 21:29:02 10° ESE 01:50:56 44° ESE 03:08:26 10° ENE visible
27 Jun 6.4 01:25:17 10° SW 03:53:46 32° SW 10:22:51 10° ESE visible
27 Jun 8.3 21:39:03 10° SSE 06:14:41 83° SSE 06:45:23 10° E visible
28 Jun 8.9 21:15:16 10° ESE 01:39:58 44° ESE 02:58:38 10° ENE visible
30 Jun 6.4 01:14:24 10° SW 03:42:26 32° SW 10:13:07 10° ESE visible
30 Jun 8.3 21:28:14 10° SSE 06:04:27 84° SSE 06:35:37 10° E visible
01 Jul 8.9 21:01:31 10° ESE 01:28:56 45° ESE 02:48:48 10° ENE visible
03 Jul 6.4 01:03:32 10° SW 03:31:06 33° SW 10:03:21 10° SE visible
